QPF
0.00 0.00 0.00 0.00 0.00 0.00 0.00 0.00 0.00 0.00 0.00 0.00 0.00 0.00 0.00 0.00 0.01 0.01 0.00 0.00 0.00 0.00 0.00 0.00 0.00 0.00 0.00 0.00 0.00 0.00 0.00 0.00 0.00
0.00 0.00 0.00 0.00 0.00 0.00 0.00 0.00 0.00 0.00 0.00 0.00 0.00 0.00 0.00 0.00 0.04 0.01 0.00 0.00 0.00 0.00 0.00 0.00 0.00 0.00 0.00 0.00 0.00 0.00 0.00 0.00 0.00
0.00 0.00 0.00 0.00 0.00 0.00 0.00 0.00 0.01 0.02 0.00 0.00 0.00 0.00 0.00 0.00 0.01 0.01 0.00 0.00 0.00 0.00 0.00 0.00 0.00 0.01 0.00 0.00 0.00 0.00 0.00 0.00 0.00
0.00 0.00 0.00 0.00 0.00 0.00 0.00 0.00 0.00 0.00 0.02 0.01 0.00 0.00 0.00 0.00 0.00 0.01 0.00 0.00 0.00 0.00 0.00 0.00 0.00 0.00 0.00 0.00 0.00 0.02 0.05 0.02 0.00
0.00 0.00 0.00 0.00 0.00 0.00 0.00 0.00 0.00 0.01 0.01 0.02 0.01 0.00 0.00 0.00 0.00 0.00 0.00 0.00 0.00 0.00 0.00 0.00 0.00 0.00 0.01 0.02 0.00 0.05 0.10 0.03 0.01
0.01 0.01 0.00 0.00 0.00 0.01 0.01 0.01 0.00 0.00 0.02 0.03 0.08 0.03 0.03 0.00 0.00 0.00 0.00 0.00 0.00 0.00 0.00 0.01 0.01 0.04 0.05 0.03 0.10 0.18 0.13 0.09 0.07
0.00 0.00 0.00 0.00 0.00 0.02 0.02 0.03 0.01 0.00 0.03 0.08 0.06 0.06 0.06 0.05 0.02 0.01 0.02 0.00 0.00 0.00 0.00 0.00 0.00 0.03 0.14 0.14 0.11 0.07 0.19 0.27 0.07
0.01 0.05 0.04 0.00 0.00 0.00 0.01 0.01 0.03 0.02 0.01 0.03 0.03 0.08 0.08 0.19 0.15 0.05 0.16 0.21 0.13 0.09 0.08 0.05 0.02 0.02 0.13 0.13 0.11 0.09 0.17 0.17 0.05
0.13 0.14 0.13 0.03 0.04 0.06 0.03 0.04 0.04 0.07 0.03 0.00 0.01 0.04 0.16 0.18 0.19 0.11 0.18 0.08 0.08 0.14 0.21 0.16 0.10 0.12 0.02 0.01 0.00 0.04 0.16 0.08 0.07
0.07 0.22 0.22 0.24 0.21 0.17 0.19 0.15 0.08 0.06 0.05 0.00 0.00 0.05 0.10 0.18 0.12 0.07 0.05 0.04 0.05 0.10 0.20 0.14 0.11 0.09 0.12 0.07 0.00 0.00 0.00 0.00 0.02
0.01 0.10 0.27 0.39 0.49 0.39 0.31 0.23 0.27 0.09 0.06 0.01 0.02 0.04 0.03 0.04 0.05 0.10 0.10 0.03 0.03 0.06 0.11 0.07 0.04 0.04 0.08 0.03 0.02 0.00 0.00 0.00 0.00
0.03 0.05 0.11 0.18 0.31 0.38 0.48 0.34 0.35 0.11 0.10 0.06 0.08 0.13 0.13 0.17 0.16 0.15 0.13 0.06 0.00 0.02 0.06 0.06 0.05 0.06 0.06 0.02 0.00 0.00 0.00 0.01 0.03
0.01 0.00 0.00 0.03 0.08 0.11 0.23 0.23 0.31 0.30 0.21 0.22 0.19 0.13 0.15 0.11 0.15 0.15 0.08 0.02 0.00 0.00 0.00 0.01 0.01 0.00 0.00 0.00 0.00 0.00 0.00 0.03 0.05
0.00 0.00 0.00 0.00 0.01 0.02 0.08 0.05 0.06 0.13 0.21 0.23 0.20 0.12 0.10 0.07 0.15 0.14 0.04 0.00 0.00 0.00 0.00 0.00 0.00 0.00 0.00 0.00 0.00 0.00 0.00 0.01 0.03
0.00 0.00 0.00 0.00 0.00 0.00 0.01 0.04 0.05 0.06 0.05 0.05 0.12 0.15 0.06 0.06 0.12 0.09 0.03 0.00 0.00 0.00 0.00 0.00 0.00 0.00 0.00 0.00 0.00 0.00 0.00 0.00 0.00
0.00 0.00 0.00 0.00 0.00 0.00 0.00 0.00 0.01 0.02 0.03 0.03 0.07 0.12 0.11 0.10 0.08 0.07 0.05 0.02 0.01 0.00 0.00 0.00 0.00 0.00 0.00 0.00 0.00 0.00 0.00 0.00 0.00
0.00 0.00 0.00 0.00 0.00 0.00 0.00 0.00 0.00 0.00 0.00 0.00 0.00 0.02 0.02 0.03 0.03 0.03 0.04 0.03 0.02 0.01 0.00 0.00 0.00 0.00 0.00 0.00 0.00 0.00 0.00 0.00 0.00
0.00 0.00 0.00 0.00 0.00 0.00 0.00 0.00 0.00 0.00 0.00 0.00 0.00 0.00 0.00 0.00 0.01 0.03 0.03 0.03 0.02 0.01 0.00 0.00 0.00 0.00 0.00 0.00 0.00 0.00 0.00 0.00 0.00
0.00 0.00 0.00 0.00 0.00 0.00 0.00 0.00 0.00 0.00 0.00 0.00 0.00 0.00 0.00 0.00 0.00 0.00 0.01 0.02 0.01 0.00 0.01 0.00 0.00 0.00 0.00 0.00 0.00 0.00 0.00 0.00 0.00
0.00 0.00 0.00 0.00 0.00 0.00 0.00 0.00 0.00 0.00 0.00 0.00 0.00 0.00 0.00 0.00 0.00 0.00 0.00 0.00 0.00 0.00 0.00 0.00 0.00 0.00 0.00 0.00 0.00 0.00 0.00 0.00 0.00
MSLP
1011.56 1012.14 1012.48 1013.01 1013.35 1013.97 1014.49 1015.01 1015.70 1016.29 1016.85 1017.59 1017.98 1018.13 1018.50 1018.97 1019.31 1019.65 1019.93 1020.19 1020.16 1020.05 1020.15 1020.23 1019.96 1019.85 1019.76 1020.17 1020.02 1020.14 1020.29 1020.65 1020.76
1010.89 1011.45 1012.25 1012.53 1013.15 1013.61 1014.19 1014.84 1015.33 1015.80 1016.38 1016.98 1017.45 1017.74 1017.99 1018.33 1018.93 1019.26 1019.49 1019.68 1019.80 1019.90 1019.99 1019.99 1020.02 1019.89 1019.75 1019.95 1019.93 1019.91 1020.16 1020.59 1020.61
1010.19 1011.13 1011.83 1012.18 1012.66 1013.22 1013.68 1014.21 1014.83 1015.44 1015.84 1016.40 1016.89 1017.34 1017.59 1017.75 1018.25 1018.42 1018.99 1019.39 1019.72 1019.89 1019.89 1019.95 1019.99 1019.95 1019.89 1020.07 1019.90 1019.75 1020.09 1020.33 1020.42
1009.61 1010.68 1011.21 1011.79 1012.29 1012.62 1013.21 1013.54 1014.39 1015.02 1015.64 1016.21 1016.76 1017.00 1017.37 1017.51 1017.95 1018.33 1018.62 1018.99 1019.29 1019.59 1019.80 1019.80 1019.75 1019.77 1020.01 1020.27 1020.05 1019.82 1020.07 1020.30 1020.37
1008.89 1009.48 1010.55 1010.98 1011.99 1012.58 1013.05 1013.42 1013.72 1014.65 1015.18 1015.53 1015.83 1016.43 1016.77 1017.13 1017.40 1018.00 1018.38 1018.63 1018.65 1018.88 1019.24 1019.25 1019.39 1019.68 1019.96 1020.13 1020.29 1020.10 1020.19 1020.25 1020.25
1008.87 1009.23 1010.15 1010.71 1011.61 1012.29 1012.86 1013.33 1013.77 1014.35 1014.89 1015.49 1015.71 1016.11 1016.74 1016.92 1017.15 1017.71 1017.97 1018.41 1018.53 1018.63 1018.77 1019.01 1019.17 1019.39 1019.71 1019.93 1020.13 1020.35 1020.31 1020.32 1020.27
1009.87 1009.29 1009.44 1010.17 1011.11 1011.96 1012.52 1013.08 1013.54 1014.13 1014.87 1015.40 1015.85 1016.05 1016.71 1017.08 1017.07 1017.16 1017.40 1017.70 1018.31 1018.63 1018.71 1018.87 1019.16 1019.36 1019.56 1020.09 1020.20 1020.22 1020.25 1020.28 1020.22
1011.11 1011.09 1011.48 1011.19 1012.18 1012.55 1012.85 1013.23 1013.54 1014.07 1014.43 1014.83 1015.25 1015.57 1016.27 1016.97 1016.85 1016.79 1017.21 1017.82 1018.27 1018.75 1018.81 1019.01 1019.05 1019.31 1019.86 1020.18 1020.13 1020.50 1020.75 1020.47 1020.26
1012.79 1012.91 1013.33 1013.22 1012.23 1012.89 1013.20 1013.24 1013.60 1013.95 1014.34 1014.37 1014.22 1014.75 1016.05 1016.74 1016.93 1017.08 1017.13 1017.33 1017.82 1018.19 1018.75 1019.11 1019.35 1019.49 1019.71 1020.24 1020.59 1020.87 1020.67 1020.45 1020.46
1013.67 1012.99 1014.65 1014.77 1013.96 1013.87 1013.69 1013.75 1014.00 1014.29 1014.44 1014.56 1014.50 1015.26 1015.97 1016.35 1016.37 1016.99 1017.35 1017.39 1017.68 1018.01 1018.60 1019.27 1019.77 1019.93 1020.25 1020.97 1020.92 1020.89 1020.80 1020.49 1020.35
1015.23 1014.65 1015.77 1014.37 1014.97 1014.85 1014.51 1014.62 1014.76 1014.95 1014.74 1014.85 1014.93 1015.49 1015.11 1015.71 1016.35 1017.03 1017.39 1017.40 1017.51 1017.75 1018.25 1018.81 1019.58 1020.11 1020.19 1020.93 1021.31 1020.97 1020.57 1020.32 1020.34
1017.13 1017.15 1017.58 1016.83 1016.22 1015.28 1015.29 1014.90 1014.49 1014.64 1014.83 1015.07 1015.22 1015.23 1015.35 1015.82 1016.19 1017.06 1017.49 1017.54 1017.66 1017.85 1018.39 1019.00 1019.55 1019.95 1020.66 1021.43 1021.60 1021.09 1020.38 1020.27 1020.52
1017.93 1017.75 1017.80 1017.65 1016.79 1016.05 1015.70 1015.34 1014.96 1015.16 1015.33 1015.31 1015.11 1015.37 1015.50 1015.79 1016.28 1016.95 1017.36 1017.73 1018.01 1018.22 1018.75 1019.25 1019.60 1020.33 1020.93 1021.47 1021.15 1020.80 1020.64 1020.63 1020.95
1018.73 1018.68 1018.37 1017.86 1017.09 1017.20 1016.90 1016.27 1015.77 1015.94 1015.56 1014.69 1015.62 1014.75 1015.87 1015.96 1016.55 1017.16 1017.79 1018.03 1018.32 1018.71 1019.25 1020.03 1020.53 1020.96 1021.08 1020.97 1020.88 1020.95 1021.00 1020.91 1021.17
1019.02 1018.90 1018.64 1018.44 1018.34 1018.01 1017.39 1016.63 1016.51 1016.54 1016.55 1016.76 1016.14 1016.05 1015.52 1014.95 1016.68 1017.61 1018.14 1018.36 1018.87 1019.07 1019.31 1020.27 1021.06 1021.21 1021.08 1021.28 1021.42 1021.30 1021.55 1021.51 1021.31
1018.97 1018.99 1019.36 1019.12 1018.74 1018.23 1017.88 1017.42 1017.33 1017.41 1017.51 1017.41 1017.36 1017.52 1017.82 1018.03 1018.32 1018.74 1018.99 1019.25 1019.61 1019.93 1019.99 1020.65 1021.01 1021.30 1021.63 1021.72 1021.81 1022.25 1022.17 1022.22 1022.15
1019.46 1018.95 1018.88 1019.61 1019.00 1019.01 1018.75 1018.41 1018.34 1018.25 1018.28 1018.37 1018.55 1018.85 1019.11 1019.44 1019.64 1020.07 1020.45 1020.67 1020.86 1020.98 1021.37 1021.55 1021.40 1021.47 1021.82 1022.07 1022.28 1022.63 1022.71 1022.90 1022.81
1020.35 1019.85 1019.58 1019.93 1019.35 1019.51 1019.37 1019.40 1018.91 1019.01 1019.05 1019.34 1019.31 1019.48 1020.05 1020.21 1020.63 1020.76 1021.40 1021.95 1022.24 1022.65 1022.67 1022.54 1022.49 1022.02 1021.67 1022.39 1022.70 1023.14 1023.30 1023.47 1023.51
1020.73 1020.84 1020.61 1020.47 1020.34 1020.42 1020.45 1020.29 1020.13 1019.75 1019.78 1019.83 1020.15 1020.25 1020.60 1020.83 1020.92 1021.38 1021.72 1022.35 1022.84 1023.31 1023.37 1023.08 1022.86 1022.65 1022.10 1022.75 1022.73 1023.14 1023.67 1023.75 1023.64
1020.78 1021.05 1021.48 1021.25 1020.94 1020.87 1021.04 1020.98 1020.82 1020.72 1020.74 1020.76 1020.97 1021.11 1021.05 1021.11 1021.43 1021.37 1021.62 1022.15 1022.58 1023.01 1023.53 1023.34 1023.49 1023.09 1022.71 1022.35 1023.09 1023.25 1023.46 1023.45 1023.36
Thickness
5771 5773 5777 5780 5787 5789 5789 5788 5787 5788 5783 5778 5778 5778 5778 5776 5776 5773 5770 5771 5772 5775 5774 5773 5775 5777 5778 5774 5775 5775 5773 5770 5768
5770 5779 5777 5781 5782 5785 5787 5787 5785 5786 5786 5782 5782 5780 5781 5780 5777 5775 5773 5775 5775 5774 5774 5774 5773 5774 5776 5775 5774 5776 5773 5770 5769
5776 5775 5774 5779 5781 5784 5788 5788 5787 5785 5787 5783 5783 5784 5783 5785 5781 5781 5779 5778 5775 5773 5774 5772 5771 5773 5773 5772 5774 5776 5774 5772 5770
5781 5777 5777 5777 5780 5783 5787 5792 5788 5784 5785 5782 5781 5782 5782 5784 5782 5780 5780 5779 5779 5776 5774 5774 5774 5775 5772 5770 5773 5775 5775 5772 5772
5785 5787 5783 5783 5776 5776 5780 5785 5790 5785 5785 5786 5787 5783 5782 5782 5784 5780 5778 5778 5780 5781 5778 5777 5777 5776 5772 5771 5770 5773 5772 5771 5772
5788 5788 5786 5788 5778 5775 5777 5779 5783 5784 5782 5783 5784 5782 5778 5779 5781 5780 5779 5778 5779 5780 5779 5777 5775 5775 5773 5772 5771 5769 5769 5769 5769
5778 5787 5791 5791 5785 5782 5781 5779 5779 5781 5778 5775 5774 5776 5772 5771 5774 5778 5779 5779 5776 5774 5775 5774 5772 5772 5772 5767 5767 5767 5766 5765 5766
5766 5767 5766 5774 5770 5771 5773 5772 5776 5776 5777 5774 5776 5773 5767 5765 5768 5774 5774 5770 5768 5766 5768 5768 5769 5769 5765 5763 5763 5760 5756 5760 5763
5744 5746 5746 5754 5764 5762 5763 5768 5769 5772 5770 5772 5775 5769 5761 5757 5762 5763 5765 5768 5766 5766 5761 5760 5760 5761 5760 5755 5754 5753 5754 5757 5759
5733 5740 5728 5731 5748 5752 5758 5761 5762 5763 5765 5767 5768 5762 5757 5757 5761 5757 5757 5760 5761 5760 5755 5752 5749 5750 5748 5743 5744 5747 5750 5753 5755
5716 5722 5709 5729 5731 5738 5746 5750 5751 5752 5756 5756 5757 5754 5762 5759 5754 5751 5749 5752 5754 5755 5752 5749 5745 5742 5742 5736 5733 5738 5744 5749 5750
5696 5694 5696 5709 5719 5730 5732 5739 5747 5749 5749 5748 5748 5750 5751 5749 5749 5743 5743 5744 5745 5747 5743 5741 5738 5736 5732 5726 5725 5730 5739 5742 5739
5691 5692 5698 5702 5714 5726 5729 5732 5737 5734 5734 5738 5744 5742 5745 5744 5741 5737 5735 5734 5736 5739 5735 5732 5731 5726 5723 5721 5724 5727 5729 5732 5727
5681 5683 5690 5701 5709 5709 5713 5720 5723 5713 5722 5725 5731 5735 5736 5736 5731 5728 5724 5724 5728 5726 5724 5720 5717 5715 5716 5719 5720 5719 5718 5719 5717
5668 5676 5682 5689 5693 5698 5705 5713 5714 5712 5707 5709 5720 5721 5715 5718 5722 5718 5716 5716 5716 5717 5718 5711 5706 5707 5710 5709 5707 5709 5706 5705 5707
5663 5665 5669 5674 5683 5689 5694 5699 5703 5701 5699 5701 5704 5703 5700 5705 5704 5703 5703 5704 5704 5705 5707 5704 5704 5701 5698 5697 5697 5693 5694 5694 5693
5653 5659 5659 5659 5666 5670 5675 5680 5684 5686 5687 5687 5687 5684 5686 5687 5686 5685 5684 5684 5686 5689 5689 5692 5696 5695 5690 5688 5687 5684 5682 5679 5681
5638 5642 5643 5641 5653 5655 5659 5661 5667 5669 5672 5671 5672 5674 5671 5671 5670 5672 5668 5664 5667 5667 5668 5673 5677 5680 5683 5676 5675 5672 5671 5670 5668
5626 5627 5629 5630 5632 5635 5638 5641 5645 5651 5652 5656 5655 5657 5658 5657 5658 5655 5655 5652 5652 5650 5651 5655 5659 5661 5666 5660 5661 5659 5656 5656 5657
5614 5614 5611 5617 5620 5623 5623 5626 5629 5632 5633 5634 5634 5636 5640 5640 5642 5645 5645 5642 5641 5639 5635 5638 5638 5642 5646 5649 5645 5643 5643 5643 5645